Lid_Strength_Index
1 1 1 1 3 3 0 -0 0 -0 -1 -0 -1 -1 -1 -1 -1 -1 -1 -1 -0 -0 -2 -1 -0 -1 0 0 -0 0 0 1 2 1 0 -1 -1 -1 -1 -2 -2 -2 -2
1 1 1 2 3 2 1 0 -0 0 -1 -1 -1 -0 -0 -0 -1 -0 -0 -0 -0 0 -1 -1 -0 -0 -0 -1 -0 -0 0 0 1 2 0 0 -0 -1 -1 -1 -1 -2 -2
1 1 1 1 3 2 1 0 -0 -0 -0 -1 -0 -0 -0 -0 -0 -1 -1 -0 -0 -0 -1 -0 -0 -0 -0 -0 -0 0 1 1 1 2 2 1 -0 -1 -0 -1 -1 -1 -1
1 1 1 1 1 1 2 1 -0 -0 -0 -0 -0 -0 -0 -0 -0 -0 -0 -0 -0 -0 -1 -0 -1 -0 -0 -0 0 0 1 1 1 1 1 1 1 -0 0 1 1 -0 1
1 1 1 1 1 1 1 1 1 -0 -0 -0 -0 -0 -0 -0 -0 -0 -1 -0 -0 -0 -0 -0 -1 0 3 2 3 1 1 2 2 2 2 2 1 1 2 2 2 2 1
1 1 1 1 1 1 2 1 1 1 0 0 0 0 0 0 5 4 0 -0 -0 -0 0 0 0 1 1 3 3 3 3 3 3 3 2 2 2 1 2 3 3 3 4
1 1 1 1 1 1 1 1 1 1 1 1 0 0 0 -0 7 7 6 0 -0 0 0 1 0 1 2 1 3 3 4 4 4 3 4 3 2 2 2 2 3 3 4
2 1 1 1 1 1 1 1 1 1 1 1 0 0 0 0 8 8 7 2 1 1 1 1 -0 0 1 2 2 2 2 1 2 3 3 2 1 1 2 2 2 2 2
2 2 1 1 1 1 1 1 1 1 1 1 0 0 0 2 9 8 6 2 2 2 2 0 1 1 5 8 4 4 3 3 3 5 5 6 7 7 6 5 5 4 5
2 3 2 1 1 2 1 1 1 0 1 1 0 -0 1 0 9 8 7 3 3 3 1 1 5 4 7 8 5 5 6 3 2 2 2 3 4 3 6 5 5 5 4
1 2 3 2 1 1 1 1 1 1 1 1 1 0 1 1 5 9 10 5 4 4 3 3 3 8 9 9 9 6 5 4 5 4 3 2 2 2 3 3 3 5 5
2 3 5 4 2 1 1 1 1 1 1 1 1 1 2 2 8 9 11 11 8 5 4 3 3 9 10 10 8 8 9 8 6 5 5 4 3 3 3 3 3 3 2
4 4 4 7 5 4 3 4 4 2 3 3 3 3 3 4 4 10 11 11 11 7 4 5 9 9 10 9 9 9 9 6 5 5 4 4 4 4 4 5 4 3 3
4 4 5 6 6 7 7 6 4 4 4 4 5 4 4 4 3 3 3 4 8 6 6 4 6 8 9 7 7 4 3 2 3 4 4 5 5 6 7 7 7 6 5
2 3 6 7 6 8 9 9 6 8 8 5 5 6 6 5 5 10 9 6 5 6 9 6 5 4 3 2 2 2 2 3 4 5 6 7 8 9 9 9 9 8 8
2 3 5 7 7 8 8 10 12 12 12 13 12 10 6 9 11 11 12 12 12 12 9 7 5 4 4 3 3 4 4 5 5 5 6 7 9 10 10 10 9 10 10
1 1 2 3 5 5 6 7 7 10 11 12 12 12 12 12 12 12 11 11 12 11 8 5 4 4 4 5 5 5 6 6 6 7 8 9 9 9 11 10 10 10 10
1 7 5 6 6 7 7 6 6 7 8 6 11 10 11 11 11 12 12 11 6 6 4 4 5 5 6 6 6 6 7 8 8 9 10 10 9 9 9 10 10 10 10
3 3 4 4 3 5 5 6 6 7 7 6 6 9 9 11 11 11 11 5 5 6 5 6 6 6 6 6 7 8 9 10 11 11 11 10 10 10 9 9 9 12 12
1 6 5 3 4 4 5 5 6 6 5 4 5 5 5 7 6 5 5 6 7 7 6 7 7 7 8 8 9 10 10 11 11 10 10 10 10 10 10 9 9 9 10
1 3 8 3 3 4 4 5 5 4 4 4 4 7 14 7 7 7 6 7 7 7 8 8 8 8 8 9 10 11 11 10 10 10 10 10 10 11 10 10 9 9 9
1 2 2 2 3 3 3 3 4 4 5 4 4 5 11 5 5 6 7 7 7 8 8 9 9 9 9 10 10 11 10 10 10 10 9 9 9 10 9 9 9 10 9
2 2 2 2 3 6 4 4 4 4 4 5 5 5 5 5 5 6 7 7 8 8 9 9 9 9 9 10 10 10 10 10 9 8 8 8 6 6 8 8 8 9 10
2 2 3 3 3 4 4 4 5 7 5 5 5 5 5 5 6 7 8 8 8 9 9 9 9 10 10 10 10 9 8 8 7 7 7 5 6 6 7 8 8 9 9
2 3 3 3 3 4 4 4 5 5 5 5 5 5 5 5 5 5 6 7 7 8 8 9 10 10 11 11 9 10 11 13 13 11 6 5 6 5 7 8 8 8 9
3 3 3 3 3 4 5 6 6 6 6 6 5 5 5 5 5 5 5 5 6 7 7 9 9 10 11 11 10 13 14 14 11 13 7 3 5 4 6 8 8 9 8